Preview of NWS' New Version of Forecast
This preview is not operational and should not be used for support decisions.

Regional Weather Roundup (RWR)

Issued by National Weather Service (NWS)

                            
000
ASUS44 KJAN 171510
RWRMS 

MISSISSIPPI HOURLY WEATHER ROUNDUP
NATIONAL WEATHER SERVICE JACKSON MS
900 AM CST SUN FEB 17 2019

NOTE: "FAIR: INDICATES FEW OR NO CLOUDS BELOW 12,000 FEET WITH NO
SIGNIFICANT WEATHER AND/OR OBSTRUCTIONS TO VISIBILITY.

MSZ001>002-007>008-010>013-018>021-025>028-034>036-171600-
NORTHWEST MISSISSIPPI
  
CITY           SKY/WX    TMP DP  RH WIND       PRES   REMARKS
BATESVILLE     LGT RAIN  45  43  93 N7G14     29.83R                  
CLARKSDALE     CLOUDY    45  45 100 N5        29.83R                  
CLEVELAND      DRIZZLE   43  43 100 N10       29.84R                  
GREENWOOD      FOG       50  49  96 N9        29.81R VSB 1            
GREENVILLE     LGT RAIN  45  43  93 NW10      29.84R VSB 1            
OLIVE BRANCH   CLOUDY    39  39 100 CALM      29.82R FOG              
OXFORD         LGT RAIN  45  45 100 NW10      29.84R                  
TUNICA           N/A     41  41 100 CALM      29.85R                  
WINONA         FOG       57  57 100 S5        29.78S VSB 1/2          
$$

MSZ003>006-009-014>017-022>024-029>033-037>039-171600-
NORTHEAST MISSISSIPPI
  
CITY           SKY/WX    TMP DP  RH WIND       PRES   REMARKS
ABERDEEN       CLOUDY    54  54 100 S8        29.83R FOG              
COLUMBUS AFB   CLOUDY    55  54  95 S9        29.81R                  
CORINTH        DRZL/FOG  46  46 100 NW7       29.81R VSB 3/4          
GOLDN TRIANGLE CLOUDY    54  53  97 S10       29.82S FOG              
STARKVILLE     CLOUDY    54  52  94 S8        29.82S                  
TUPELO         CLOUDY    52  50  93 S7        29.79R FOG              
$$

MSZ040-058-171600-
CENTRAL MISSISSIPPI
  
CITY           SKY/WX    TMP DP  RH WIND       PRES   REMARKS
JACKSON INTL   CLOUDY    64  62  93 SE8       29.81S FOG              
JACKSON HAWKNS CLOUDY    64  64 100 S6        29.81R FOG              
MADISON        CLOUDY    61  61 100 CALM      29.80R                  
MERIDIAN KEY   CLOUDY    64  59  83 S7        29.84R                  
MERIDIAN NAS   CLOUDY    59  57  93 E3        29.85R                  
RAYMOND        FAIR      66  66 100 S5        29.80R                  
VICKSBURG VKS  CLOUDY    59  59 100 CALM      29.81R                  
$$

MSZ059>079-171600-
SOUTH MISSISSIPPI
  
CITY           SKY/WX    TMP DP  RH WIND       PRES   REMARKS
HATTIESBURG    CLOUDY    70  63  78 SW8       29.85R                  
LAUREL         CLOUDY    67  64  87 S3        29.85R                  
MCCOMB         CLOUDY    68  63  84 S6        29.83R                  
NATCHEZ        CLOUDY    64  64 100 S6        29.80S FOG              
PINE BELT      CLOUDY    70  65  84 VRB5      29.86R                  
$$

MSZ080>082-171600-
COASTAL MISSISSIPPI
  
CITY           SKY/WX    TMP DP  RH WIND       PRES   REMARKS
BAY ST LOUIS   FOG       66  64  94 S5        29.85R VSB 1            
BILOXI         CLOUDY    66  66 100 S8        29.84R                  
PASCAGOULA     PTSUNNY   75  67  76 S13       29.84S                  
GULFPORT       FOG       65  65 100 S6        29.83R VSB 1/2          
$$

LAZ007>009-015>016-023>026-171600-
NORTHEAST LOUISIANA
  
CITY           SKY/WX    TMP DP  RH WIND       PRES   REMARKS
BASTROP        DRZL/FOG  44  44  98 N3        29.84R VSB 3/4          
TALLULAH/VBURG LGT RAIN  56  51  84 CALM      29.80R                  
VIDALIA        CLOUDY    63  63  99 SE5       29.79R FOG              
$$